{"data":{"norad_id":64249,"epoch":"2026-05-24T16:22:37.214688Z","epoch_age_seconds":105589,"freshness":"FRESH","line1":"1 64249U 25119S   26144.68237517  .00017586  00000+0  64711-3 0  9997","line2":"2 64249  43.0011 237.6874 0001473 276.0226  84.0458 15.27577933 55797","mean_motion":15.27577933,"eccentricity":0.0001473,"inclination_deg":43.0011,"raan_deg":237.6874,"arg_perigee_deg":276.0226,"mean_anomaly_deg":84.0458,"bstar":0.00064711,"rev_number":5579,"period_min":94.266876268106,"perigee_km":482.04463176459,"apogee_km":484.06593901187,"semimajor_km":6861.1922853882,"source":"CELESTRAK","updated_at":"2026-05-25T13:38:20.354726Z"}}